User: anonymous   Login
Location: Newark
(40.2370°N, 1.4081°W)
Time: 14:07:50
(UTC+00:00)
Language:

ZACube-1 - Orbit

View from above orbital plane
View from above orbital plane
View from above satellite
View from above satellite

Ground track
Ground track

The orbit data is extracted from the following two-line orbital elements,

1 39417U 13066B   19341.90708079 +.00000170 +00000-0 +27669-4 0  9990
2 39417 097.5613 345.7214 0058690 187.9120 172.1173 14.81188710326539
Epoch (UTC): 07 December 2019 21:46:11
Eccentricity: 0.0058690
inclination: 97.5613°
perigee height: 584 km
apogee height: 666 km
right ascension of ascending node: 345.7214°
argument of perigee: 187.9120°
revolutions per day: 14.81188710
mean anomaly at epoch: 172.1173°
orbit number at epoch: 32653

The dashed part of the orbit path shows where the satellite is in the earth's shadow,  

DLR